Tucson, AZ

11:42 AM MST on February 07, 2016 (GMT -0700)
Davis-Monthan Air Force Base

Weather History for KDMA - November, 2013

Change the Weather History Date:

Saturday, November 2, 2013

  Actual Average Record
Temperature  
Mean Temperature 70 °F -  
Max Temperature 85 °F 76 °F 87 °F (2005)
Min Temperature 55 °F 47 °F 33 °F (1956)
Cooling Degree Days 5    
Growing Degree Days 20 (Base 50)    
Moisture  
Dew Point 26 °F    
Average Humidity 25    
Maximum Humidity 69    
Minimum Humidity 7    
Precipitation  
Precipitation 0.03 in - - ()
Sea Level Pressure  
Sea Level Pressure 29.93 in    
Wind  
Wind Speed 13 mph (SE)    
Max Wind Speed 25 mph    
Max Gust Speed 36 mph    
Visibility 10 miles    
Events Rain    
Averages and records for this station are not official NWS values.
T = Trace of Precipitation, MM = Missing Value Source: NWS Daily Summary

Daily Weather History Graph

Daily Weather History Graph

Search for Another Location

Airport or City:

Trip Planner

Search our weather history database for the weather conditions in past years. The results will help you decide how hot, cold, wet, or windy it might be!

Date:

Astronomy

Nov. 02, 2013 Rise Set
Actual Time 6:41 AM MST 5:32 PM MST
Civil Twilight 6:16 AM MST 5:57 PM MST
Nautical Twilight 5:47 AM MST 6:26 PM MST
Astronomical Twilight 5:18 AM MST 6:55 PM MST
Moon 5:45 AM MST (11/2) 5:05 PM MST (11/2)
Length of Visible Light 11h 41m
Length of Day
10h 50m
Waning Crescent, 1% of the Moon is Illuminated
Nov 2
Waning Crescent
Nov 3
New
Nov 9
First Quarter
Nov 17
Full
Nov 25
Last Quarter

Hourly Weather History & Observations

Time (MST) Temp. Dew Point Humidity Pressure Visibility Wind Dir Wind Speed Gust Speed Precip Events Conditions
12:58 AM 58.6 °F 16.5 °F 19% 30.00 in 10.0 mi SE 15.0 mph - N/A   Clear
1:58 AM 57.4 °F 16.9 °F 21% 29.98 in 10.0 mi SE 9.2 mph - N/A   Clear
2:58 AM 55.2 °F 16.9 °F 22% 29.96 in 10.0 mi SSE 10.4 mph - N/A   Clear
3:58 AM 58.5 °F 17.8 °F 21% 29.95 in 10.0 mi ESE 17.3 mph - N/A   Clear
4:58 AM 56.1 °F 18.1 °F 23% 29.96 in 10.0 mi ESE 11.5 mph - N/A   Clear
5:58 AM 60.1 °F 18.0 °F 20% 29.96 in 10.0 mi ESE 13.8 mph - N/A   Clear
6:58 AM 60.3 °F 18.1 °F 20% 29.96 in 10.0 mi SSE 12.7 mph - N/A   Clear
7:58 AM 64.2 °F 17.6 °F 17% 29.97 in 10.0 mi SSE 17.3 mph - N/A   Clear
8:58 AM 71.8 °F 15.3 °F 12% 29.98 in 10.0 mi SE 21.9 mph 27.6 mph N/A   Clear
9:58 AM 76.3 °F 11.1 °F 8% 29.96 in 10.0 mi ESE 25.3 mph 32.2 mph N/A   Clear
10:58 AM 78.8 °F 10.6 °F 7% 29.94 in 10.0 mi ESE 21.9 mph - N/A   Clear
11:58 AM 81.1 °F 11.8 °F 7% 29.91 in 10.0 mi ESE 19.6 mph - N/A   Clear
12:58 PM 83.5 °F 13.6 °F 7% 29.88 in 10.0 mi ESE 12.7 mph - N/A   Clear
1:58 PM 84.7 °F 14.5 °F 7% 29.84 in 10.0 mi SSE 10.4 mph - N/A   Clear
2:58 PM 85.3 °F 12.9 °F 7% 29.82 in 10.0 mi Variable 6.9 mph - N/A   Clear
3:58 PM 84.7 °F 14.7 °F 7% 29.81 in 10.0 mi SSE 5.8 mph - N/A   Clear
4:58 PM 83.7 °F 13.8 °F 7% 29.79 in 10.0 mi SE 8.1 mph - N/A   Clear
5:58 PM 75.7 °F 14.4 °F 10% 29.80 in 10.0 mi ESE 6.9 mph - N/A   Clear
6:58 PM 77.9 °F 15.1 °F 9% 29.81 in 10.0 mi SW 8.1 mph - N/A   Partly Cloudy
7:12 PM 77.0 °F 15.8 °F 10% 29.91 in 10.0 mi SW 5.8 mph - N/A Rain Light Rain
7:31 PM 75.2 °F 28.4 °F 18% 29.91 in 10.0 mi WNW 5.8 mph - N/A   Mostly Cloudy
7:58 PM 72.5 °F 25.2 °F 17% 29.82 in 10.0 mi NNW 3.5 mph - 0.00 in   Mostly Cloudy
8:58 PM 70.9 °F 21.4 °F 15% 29.83 in 10.0 mi SW 5.8 mph - N/A   Mostly Cloudy
9:50 PM 71.6 °F 19.4 °F 14% 29.98 in 10.0 mi SSW 21.9 mph 29.9 mph N/A   Clear
9:54 PM 73.4 °F 24.8 °F 16% 29.98 in 8.0 mi WSW 24.2 mph 35.7 mph N/A   Clear
9:58 PM 73.0 °F 25.9 °F 17% 29.88 in 8.0 mi SSW 11.5 mph 35.7 mph N/A   Light Drizzle
10:07 PM 73.4 °F 30.2 °F 20% 29.99 in 10.0 mi Variable 6.9 mph 23.0 mph N/A   Clear
10:17 PM 73.4 °F 30.2 °F 20% 30.00 in 8.0 mi West 15.0 mph 33.4 mph N/A   Clear
10:27 PM 71.6 °F 37.4 °F 29% 30.00 in 10.0 mi WNW 16.1 mph - N/A   Clear
10:58 PM 66.2 °F 46.6 °F 49% 29.91 in 10.0 mi Calm Calm - 0.00 in Rain Light Rain
11:08 PM 64.4 °F 48.2 °F 56% 30.02 in 9.0 mi SSE 12.7 mph - N/A Rain Light Rain
11:13 PM 64.4 °F 48.2 °F 56% 30.01 in 7.0 mi SE 12.7 mph - N/A Rain Rain
11:23 PM 62.6 °F 50.0 °F 63% 29.99 in 9.0 mi SE 9.2 mph - N/A Rain Light Rain
11:28 PM 62.6 °F 51.8 °F 68% 29.99 in 10.0 mi ESE 8.1 mph - N/A   Light Drizzle
11:31 PM 62.6 °F 51.8 °F 68% 29.99 in 10.0 mi ESE 6.9 mph - N/A   Scattered Clouds
11:40 PM 62.6 °F 51.8 °F 68% 30.00 in 10.0 mi ENE 10.4 mph - N/A   Light Drizzle
11:58 PM 62.4 °F 52.0 °F 69% 29.89 in 10.0 mi East 8.1 mph - 0.03 in Rain Light Rain